EW5383 Weather Reports


Display with metric or nautical units.
time (UTC)temp
F
wind
direction
speed
MPH
gust
MPH
rain 1hr
in
rain 24hr
in
rain mn
in
humidity
%
barometer
mb
20260902130045 82 41 0.0 1.0 0.00 0.03 0.00 1 1016.1
20260902124540 81 85 0.0 1.0 0.00 0.03 0.00 1 1016.3
20260902123036 80 105 0.0 0.0 0.00 0.03 0.00 1 1016.0
20260902121531 79 70 0.0 0.0 0.00 0.03 0.00 1 1015.9
20260902120028 78 69 0.0 0.0 0.00 0.03 0.00 1 1015.9
20260902114543 77 69 0.0 0.0 0.00 0.03 0.00 1 1015.9
20260902113018 0 0.0 0.0 0.00 0.03 0.00 1015.8
20260902111513 0 0.0 0.0 0.00 0.03 0.00 1015.7
20260902110015 0 0.0 0.0 0.00 0.03 0.00 1015.7
20260902104508 0 0.0 0.0 0.00 0.03 0.00 1015.5
20260902103002 0 0.0 0.0 0.00 0.03 0.00 1015.3
20260902101557 0 0.0 0.0 0.00 0.03 0.00 1015.4
20260902100053 0 0.0 0.0 0.00 0.03 0.00 1015.2
20260902094550 0 0.0 0.0 0.00 0.03 0.00 1015.1
20260902093044 0 0.0 0.0 0.00 0.03 0.00 1014.9
20260902091548 0 0.0 0.0 0.00 0.03 0.00 1014.9
20260902090046 0 0.0 0.0 0.00 0.03 0.00 1014.8
20260902084531 0 0.0 0.0 0.00 0.03 0.00 1014.6
20260902083029 0 0.0 0.0 0.00 0.03 0.00 1014.6
20260902081523 0 0.0 0.0 0.00 0.03 0.00 1014.8
20260902080018 0 0.0 0.0 0.00 0.03 0.00 1014.6
20260902074513 0 0.0 0.0 0.00 0.03 0.00 1014.7
20260902073009 0 0.0 0.0 0.00 0.03 0.00 1014.5
20260902071508 0 0.0 0.0 0.00 0.03 0.00 1014.7
20260902064556 0 0.0 0.0 0.00 0.03 0.00 1014.8
20260902063056 0 0.0 0.0 0.00 0.03 0.00 1014.9
20260902061551 0 0.0 0.0 0.00 0.03 0.00 1015.1
20260902060053 0 0.0 0.0 0.00 0.03 0.00 1015.1
20260902054542 0 0.0 0.0 0.00 0.03 0.00 1015.3
20260902053038 0 0.0 0.0 0.00 0.03 0.00 1015.5
20260902051530 0 0.0 0.0 0.00 0.03 0.00 1015.5
20260902050026 0 0.0 0.0 0.00 0.03 0.00 1015.5
20260902044522 0 0.0 0.0 0.00 0.03 0.00 1015.6
20260902043017 0 0.0 0.0 0.00 0.03 0.00 1015.7
20260902041514 0 0.0 0.0 0.00 0.03 0.00 1015.8
20260902040009 0 0.0 0.0 0.00 0.03 0.00 1015.8
20260902034515 0 0.0 0.0 0.00 0.03 0.03 1015.9
20260902033106 0 0.0 0.0 0.00 0.03 0.03 1016.2
20260902031555 0 0.0 0.0 0.00 0.03 0.03 1016.3
20260902030051 0 0.0 0.0 0.00 0.03 0.03 1016.4
20260902024547 0 0.0 0.0 0.00 0.03 0.03 1016.3
20260902023047 0 0.0 0.0 0.00 0.03 0.03 1016.3
20260902021538 78 69 0.0 0.0 0.00 0.03 0.03 1 1016.3
20260902020032 78 69 0.0 0.0 0.00 0.03 0.03 1 1016.2
20260902014535 78 69 0.0 0.0 0.00 0.03 0.03 1 1016.1
20260902013024 78 69 0.0 0.0 0.00 0.03 0.03 1 1016.0
20260902011520 78 69 0.0 0.0 0.00 0.03 0.03 1 1016.0
20260902010028 78 69 0.0 0.0 0.00 0.03 0.03 1 1016.0
20260902004511 79 69 0.0 0.0 0.00 0.03 0.03 1 1015.8
20260902003007 79 69 0.0 0.0 0.00 0.03 0.03 1 1015.8
20260902001503 79 69 0.0 0.0 0.00 0.03 0.03 1 1015.9
20260902000100 80 69 0.0 0.0 0.01 0.03 0.03 1 1015.8
20260901234609 80 69 0.0 0.0 0.01 0.03 0.03 1 1015.7
20260901233149 81 117 0.0 0.0 0.01 0.03 0.03 1 1015.9
20260901231550 81 120 0.0 0.0 0.02 0.03 0.03 1 1015.7
20260901230043 82 110 0.0 1.0 0.02 0.02 0.02 1 1015.5
20260901224537 82 103 0.0 0.0 0.02 0.02 0.02 1 1015.1
20260901223034 83 117 0.0 0.0 0.02 0.02 0.02 1 1014.8
20260901221530 83 117 0.0 0.0 0.01 0.01 0.01 1 1015.0
20260901220030 83 180 0.0 0.0 0.00 0.00 0.00 1 1014.9
20260901214519 83 180 0.0 0.0 0.00 0.00 0.00 2 1015.0
20260901213017 82 62 0.0 0.0 0.00 0.00 0.00 8 1015.1
20260901211513 82 56 0.0 0.0 0.00 0.00 0.00 5 1014.9
20260901210006 82 45 0.0 0.0 0.00 0.00 0.00 1 1014.5
20260901204508 83 23 0.0 4.0 0.00 0.00 0.00 16 1014.6
20260901203058 86 63 1.0 5.0 0.00 0.00 0.00 52 1014.8
20260901201557 90 116 0.0 3.0 0.00 0.00 0.00 57 1014.2
20260901200051 90 67 1.0 4.0 0.00 0.00 0.00 61 1014.4
20260901194553 92 23 0.0 2.0 0.00 0.00 0.00 59 1014.1
20260901193040 93 65 0.0 1.0 0.00 0.00 0.00 59 1014.3
20260901191535 93 162 0.0 1.0 0.00 0.00 0.00 57 1014.7
20260901190030 93 178 0.0 2.0 0.00 0.00 0.00 58 1015.0
20260901184526 93 53 0.0 1.0 0.00 0.00 0.00 59 1015.2
20260901183026 92 20 0.0 0.0 0.00 0.00 0.00 60 1015.2
20260901181525 92 39 0.0 1.0 0.00 0.00 0.00 60 1015.5
20260901180013 92 39 0.0 2.0 0.00 0.00 0.00 59 1015.7
20260901174509 92 33 0.0 2.0 0.00 0.00 0.00 59 1015.8
20260901173004 92 63 0.0 0.0 0.00 0.00 0.00 57 1015.9
20260901171601 90 37 0.0 1.0 0.00 0.00 0.00 59 1016.1
20260901170116 90 58 0.0 1.0 0.00 0.00 0.00 56 1016.4
20260901164552 90 103 0.0 1.0 0.00 0.00 0.00 56 1016.5
20260901163047 90 122 0.0 1.0 0.00 0.00 0.00 56 1016.7
20260901161542 89 44 0.0 1.0 0.00 0.00 0.00 52 1016.8
20260901160046 88 20 0.0 3.0 0.00 0.00 0.00 45 1017.0
20260901154533 89 15 0.0 1.0 0.00 0.00 0.00 43 1017.0
20260901153028 89 105 0.0 1.0 0.00 0.00 0.00 33 1017.1
20260901151524 87 38 0.0 1.0 0.00 0.00 0.00 30 1017.1
20260901150019 89 107 0.0 1.0 0.00 0.00 0.00 11 1017.0
20260901144516 88 109 0.0 1.0 0.00 0.00 0.00 7 1017.0
20260901143011 88 184 0.0 1.0 0.00 0.00 0.00 1 1017.0
20260901141506 87 105 0.0 0.0 0.00 0.00 0.00 1 1016.9
20260901140003 86 117 0.0 0.0 0.00 0.00 0.00 1 1016.8
20260901134557 84 219 0.0 1.0 0.00 0.00 0.00 1 1016.8
20260901133104 83 94 0.0 0.0 0.00 0.00 0.00 1 1016.6
20260901131550 82 63 0.0 1.0 0.00 0.00 0.00 1 1016.5